Year,Month,Day,Hour,Minute,Value (Times are PST for temperature in C)
2014,04,14,00,00,6.10
2014,04,14,00,01,6.10
2014,04,14,00,02,6.10
2014,04,14,00,03,6.10
2014,04,14,00,04,6.10
2014,04,14,00,05,6.10
2014,04,14,00,06,6.10
2014,04,14,00,07,6.10
2014,04,14,00,08,6.00
2014,04,14,00,09,6.00
2014,04,14,00,10,6.00
2014,04,14,00,11,6.00
2014,04,14,00,12,6.10
2014,04,14,00,13,6.10
2014,04,14,00,14,6.10
2014,04,14,00,15,6.10
2014,04,14,00,16,6.10
2014,04,14,00,17,6.10
2014,04,14,00,18,6.00
2014,04,14,00,19,6.00
2014,04,14,00,20,6.00
2014,04,14,00,21,5.90
2014,04,14,00,22,5.90
2014,04,14,00,23,5.80
2014,04,14,00,24,5.80
2014,04,14,00,25,5.80
2014,04,14,00,26,5.70
2014,04,14,00,27,5.70
2014,04,14,00,28,5.70
2014,04,14,00,29,5.70
2014,04,14,00,30,5.70
2014,04,14,00,31,5.70
2014,04,14,00,32,5.70
2014,04,14,00,33,5.70
2014,04,14,00,34,5.70
2014,04,14,00,35,5.70
2014,04,14,00,36,5.70
2014,04,14,00,37,5.70
2014,04,14,00,38,5.70
2014,04,14,00,39,5.70
2014,04,14,00,40,5.70
2014,04,14,00,41,5.60
2014,04,14,00,42,5.60
2014,04,14,00,43,5.50
2014,04,14,00,44,5.50
2014,04,14,00,45,5.40
2014,04,14,00,46,5.40
2014,04,14,00,47,5.30
2014,04,14,00,48,5.30
2014,04,14,00,49,5.30
2014,04,14,00,50,5.40
2014,04,14,00,51,5.40
2014,04,14,00,52,5.40
2014,04,14,00,53,5.50
2014,04,14,00,54,5.40
2014,04,14,00,55,5.50
2014,04,14,00,56,5.50
2014,04,14,00,57,5.50
2014,04,14,00,58,5.50
2014,04,14,00,59,5.50
2014,04,14,01,00,5.50
2014,04,14,01,01,5.60
2014,04,14,01,02,5.50
2014,04,14,01,03,5.50
2014,04,14,01,04,5.50
2014,04,14,01,05,5.50
2014,04,14,01,06,5.50
2014,04,14,01,07,5.50
2014,04,14,01,08,5.50
2014,04,14,01,09,5.50
2014,04,14,01,10,5.50
2014,04,14,01,11,5.50
2014,04,14,01,12,5.60
2014,04,14,01,13,5.60
2014,04,14,01,14,5.60
2014,04,14,01,15,5.70
2014,04,14,01,16,5.70
2014,04,14,01,17,5.80
2014,04,14,01,18,5.80
2014,04,14,01,19,5.80
2014,04,14,01,20,5.80
2014,04,14,01,21,5.80
2014,04,14,01,22,5.80
2014,04,14,01,23,5.80
2014,04,14,01,24,5.80
2014,04,14,01,25,5.70
2014,04,14,01,26,5.70
2014,04,14,01,27,5.60
2014,04,14,01,28,5.60
2014,04,14,01,29,5.50
2014,04,14,01,30,5.40
2014,04,14,01,31,5.30
2014,04,14,01,32,5.20
2014,04,14,01,33,5.10
2014,04,14,01,34,5.10
2014,04,14,01,35,5.10
2014,04,14,01,36,5.10
2014,04,14,01,37,5.00
2014,04,14,01,38,5.00
2014,04,14,01,39,5.00
2014,04,14,01,40,4.90
2014,04,14,01,41,4.90
2014,04,14,01,42,4.80
2014,04,14,01,43,4.70
2014,04,14,01,44,4.70
2014,04,14,01,45,4.70
2014,04,14,01,46,4.70
2014,04,14,01,47,4.70
2014,04,14,01,48,4.70
2014,04,14,01,49,4.70
2014,04,14,01,50,4.70
2014,04,14,01,51,4.80
2014,04,14,01,52,4.80
2014,04,14,01,53,4.90
2014,04,14,01,54,4.90
2014,04,14,01,55,4.90
2014,04,14,01,56,5.00
2014,04,14,01,57,5.10
2014,04,14,01,58,5.20
2014,04,14,01,59,5.20
2014,04,14,02,00,5.30
2014,04,14,02,01,5.30
2014,04,14,02,02,5.30
2014,04,14,02,03,5.30
2014,04,14,02,04,5.30
2014,04,14,02,05,5.30
2014,04,14,02,06,5.30
2014,04,14,02,07,5.20
2014,04,14,02,08,5.20
2014,04,14,02,09,5.20
2014,04,14,02,10,5.20
2014,04,14,02,11,5.20
2014,04,14,02,12,5.20
2014,04,14,02,13,5.30
2014,04,14,02,14,5.40
2014,04,14,02,15,5.50
2014,04,14,02,16,5.60
2014,04,14,02,17,5.70
2014,04,14,02,18,5.70
2014,04,14,02,19,5.70
2014,04,14,02,20,5.70
2014,04,14,02,21,5.60
2014,04,14,02,22,5.60
2014,04,14,02,23,5.60
2014,04,14,02,24,5.60
2014,04,14,02,25,5.50
2014,04,14,02,26,5.60
2014,04,14,02,27,5.60
2014,04,14,02,28,5.60
2014,04,14,02,29,5.60
2014,04,14,02,30,5.60
2014,04,14,02,31,5.50
2014,04,14,02,32,5.50
2014,04,14,02,33,5.40
2014,04,14,02,34,5.40
2014,04,14,02,35,5.40
2014,04,14,02,36,5.30
2014,04,14,02,37,5.20
2014,04,14,02,38,5.20
2014,04,14,02,39,5.10
2014,04,14,02,40,5.00
2014,04,14,02,41,4.90
2014,04,14,02,42,4.80
2014,04,14,02,43,4.80
2014,04,14,02,44,4.70
2014,04,14,02,45,4.60
2014,04,14,02,46,4.50
2014,04,14,02,47,4.50
2014,04,14,02,48,4.50
2014,04,14,02,49,4.50
2014,04,14,02,50,4.60
2014,04,14,02,51,4.60
2014,04,14,02,52,4.70
2014,04,14,02,53,4.70
2014,04,14,02,54,4.70
2014,04,14,02,55,4.70
2014,04,14,02,56,4.70
2014,04,14,02,57,4.60
2014,04,14,02,58,4.60
2014,04,14,02,59,4.50
2014,04,14,03,00,4.50
2014,04,14,03,01,4.50
2014,04,14,03,02,4.40
2014,04,14,03,03,4.40
2014,04,14,03,04,4.40
2014,04,14,03,05,4.40
2014,04,14,03,06,4.40
2014,04,14,03,07,4.30
2014,04,14,03,08,4.30
2014,04,14,03,09,4.20
2014,04,14,03,10,4.10
2014,04,14,03,11,4.00
2014,04,14,03,12,4.00
2014,04,14,03,13,3.90
2014,04,14,03,14,3.80
2014,04,14,03,15,3.80
2014,04,14,03,16,3.70
2014,04,14,03,17,3.70
2014,04,14,03,18,3.70
2014,04,14,03,19,3.80
2014,04,14,03,20,3.80
2014,04,14,03,21,3.90
2014,04,14,03,22,4.00
2014,04,14,03,23,4.00
2014,04,14,03,24,4.10
2014,04,14,03,25,4.20
2014,04,14,03,26,4.20
2014,04,14,03,27,4.30
2014,04,14,03,28,4.40
2014,04,14,03,29,4.40
2014,04,14,03,30,4.50
2014,04,14,03,31,4.60
2014,04,14,03,32,4.60
2014,04,14,03,33,4.60
2014,04,14,03,34,4.70
2014,04,14,03,35,4.70
2014,04,14,03,36,4.70
2014,04,14,03,37,4.80
2014,04,14,03,38,4.80
2014,04,14,03,39,4.80
2014,04,14,03,40,4.80
2014,04,14,03,41,4.70
2014,04,14,03,42,4.70
2014,04,14,03,43,4.70
2014,04,14,03,44,4.60
2014,04,14,03,45,4.60
2014,04,14,03,46,4.60
2014,04,14,03,47,4.60
2014,04,14,03,48,4.70
2014,04,14,03,49,4.70
2014,04,14,03,50,4.70
2014,04,14,03,51,4.80
2014,04,14,03,52,4.80
2014,04,14,03,53,4.80
2014,04,14,03,54,4.80
2014,04,14,03,55,4.90
2014,04,14,03,56,4.90
2014,04,14,03,57,5.00
2014,04,14,03,58,5.00
2014,04,14,03,59,4.90
2014,04,14,04,00,4.90
2014,04,14,04,01,4.80
2014,04,14,04,02,4.70
2014,04,14,04,03,4.70
2014,04,14,04,04,4.70
2014,04,14,04,05,4.60
2014,04,14,04,06,4.60
2014,04,14,04,07,4.60
2014,04,14,04,08,4.60
2014,04,14,04,09,4.60
2014,04,14,04,10,4.60
2014,04,14,04,11,4.60
2014,04,14,04,12,4.60
2014,04,14,04,13,4.50
2014,04,14,04,14,4.50
2014,04,14,04,15,4.50
2014,04,14,04,16,4.50
2014,04,14,04,17,4.60
2014,04,14,04,18,4.60
2014,04,14,04,19,4.70
2014,04,14,04,20,4.70
2014,04,14,04,21,4.70
2014,04,14,04,22,4.70
2014,04,14,04,23,4.70
2014,04,14,04,24,4.70
2014,04,14,04,25,4.60
2014,04,14,04,26,4.60
2014,04,14,04,27,4.50
2014,04,14,04,28,4.50
2014,04,14,04,29,4.40
2014,04,14,04,30,4.40
2014,04,14,04,31,4.40
2014,04,14,04,32,4.30
2014,04,14,04,33,4.30
2014,04,14,04,34,4.30
2014,04,14,04,35,4.30
2014,04,14,04,36,4.30
2014,04,14,04,37,4.20
2014,04,14,04,38,4.20
2014,04,14,04,39,4.30
2014,04,14,04,40,4.30
2014,04,14,04,41,4.30
2014,04,14,04,42,4.30
2014,04,14,04,43,4.40
2014,04,14,04,44,4.40
2014,04,14,04,45,4.40
2014,04,14,04,46,4.40
2014,04,14,04,47,4.40
2014,04,14,04,48,4.40
2014,04,14,04,49,4.40
2014,04,14,04,50,4.40
2014,04,14,04,51,4.40
2014,04,14,04,52,4.40
2014,04,14,04,53,4.40
2014,04,14,04,54,4.50
2014,04,14,04,55,4.50
2014,04,14,04,56,4.50
2014,04,14,04,57,4.50
2014,04,14,04,58,4.60
2014,04,14,04,59,4.70
2014,04,14,05,00,4.70
2014,04,14,05,01,4.70
2014,04,14,05,02,4.70
2014,04,14,05,03,4.70
2014,04,14,05,04,4.60
2014,04,14,05,05,4.60
2014,04,14,05,06,4.50
2014,04,14,05,07,4.50
2014,04,14,05,08,4.60
2014,04,14,05,09,4.60
2014,04,14,05,10,4.60
2014,04,14,05,11,4.60
2014,04,14,05,12,4.50
2014,04,14,05,13,4.50
2014,04,14,05,14,4.40
2014,04,14,05,15,4.30
2014,04,14,05,16,4.30
2014,04,14,05,17,4.30
2014,04,14,05,18,4.30
2014,04,14,05,19,4.30
2014,04,14,05,20,4.30
2014,04,14,05,21,4.40
2014,04,14,05,22,4.40
2014,04,14,05,23,4.40
2014,04,14,05,24,4.40
2014,04,14,05,25,4.40
2014,04,14,05,26,4.40
2014,04,14,05,27,4.30
2014,04,14,05,28,4.30
2014,04,14,05,29,4.30
2014,04,14,05,30,4.30
2014,04,14,05,31,4.40
2014,04,14,05,32,4.40
2014,04,14,05,33,4.50
2014,04,14,05,34,4.60
2014,04,14,05,35,4.60
2014,04,14,05,36,4.70
2014,04,14,05,37,4.70
2014,04,14,05,38,4.80
2014,04,14,05,39,5.00
2014,04,14,05,40,5.10
2014,04,14,05,41,5.10
2014,04,14,05,42,5.20
2014,04,14,05,43,5.30
2014,04,14,05,44,5.40
2014,04,14,05,45,5.30
2014,04,14,05,46,5.20
2014,04,14,05,47,5.10
2014,04,14,05,48,5.00
2014,04,14,05,49,5.00
2014,04,14,05,50,5.00
2014,04,14,05,51,5.00
2014,04,14,05,52,4.90
2014,04,14,05,53,4.90
2014,04,14,05,54,4.90
2014,04,14,05,55,4.80
2014,04,14,05,56,4.80
2014,04,14,05,57,4.80
2014,04,14,05,58,4.70
2014,04,14,05,59,4.70
2014,04,14,06,00,4.70
2014,04,14,06,01,4.70
2014,04,14,06,02,4.70
2014,04,14,06,03,4.70
2014,04,14,06,04,4.70
2014,04,14,06,05,4.70
2014,04,14,06,06,4.70
2014,04,14,06,07,4.60
2014,04,14,06,08,4.60
2014,04,14,06,09,4.60
2014,04,14,06,10,4.50
2014,04,14,06,11,4.40
2014,04,14,06,12,4.40
2014,04,14,06,13,4.40
2014,04,14,06,14,4.40
2014,04,14,06,15,4.30
2014,04,14,06,16,4.30
2014,04,14,06,17,4.20
2014,04,14,06,18,4.20
2014,04,14,06,19,4.10
2014,04,14,06,20,4.10
2014,04,14,06,21,4.10
2014,04,14,06,22,4.10
2014,04,14,06,23,4.00
2014,04,14,06,24,4.10
2014,04,14,06,25,4.20
2014,04,14,06,26,4.20
2014,04,14,06,27,4.20
2014,04,14,06,28,4.20
2014,04,14,06,29,4.20
2014,04,14,06,30,4.20
2014,04,14,06,31,4.10
2014,04,14,06,32,4.00
2014,04,14,06,33,4.00
2014,04,14,06,34,4.10
2014,04,14,06,35,4.10
2014,04,14,06,36,4.10
2014,04,14,06,37,4.10
2014,04,14,06,38,4.10
2014,04,14,06,39,4.10
2014,04,14,06,40,4.20
2014,04,14,06,41,4.20
2014,04,14,06,42,4.30
2014,04,14,06,43,4.30
2014,04,14,06,44,4.30
2014,04,14,06,45,4.30
2014,04,14,06,46,4.30
2014,04,14,06,47,4.30
2014,04,14,06,48,4.30
2014,04,14,06,49,4.30
2014,04,14,06,50,4.30
2014,04,14,06,51,4.30
2014,04,14,06,52,4.40
2014,04,14,06,53,4.50
2014,04,14,06,54,4.60
2014,04,14,06,55,4.70
2014,04,14,06,56,4.80
2014,04,14,06,57,4.90
2014,04,14,06,58,5.00
2014,04,14,06,59,5.00
2014,04,14,07,00,5.10
2014,04,14,07,01,5.10
2014,04,14,07,02,5.10
2014,04,14,07,03,5.10
2014,04,14,07,04,5.20
2014,04,14,07,05,5.10
2014,04,14,07,06,5.10
2014,04,14,07,07,5.10
2014,04,14,07,08,5.10
2014,04,14,07,09,5.10
2014,04,14,07,10,5.20
2014,04,14,07,11,5.20
2014,04,14,07,12,5.20
2014,04,14,07,13,5.30
2014,04,14,07,14,5.30
2014,04,14,07,15,5.40
2014,04,14,07,16,5.50
2014,04,14,07,17,5.60
2014,04,14,07,18,5.60
2014,04,14,07,19,5.70
2014,04,14,07,20,5.80
2014,04,14,07,21,5.90
2014,04,14,07,22,6.00
2014,04,14,07,23,6.10
2014,04,14,07,24,6.20
2014,04,14,07,25,6.20
2014,04,14,07,26,6.30
2014,04,14,07,27,6.40
2014,04,14,07,28,6.50
2014,04,14,07,29,6.60
2014,04,14,07,30,6.80
2014,04,14,07,31,6.90
2014,04,14,07,32,7.10
2014,04,14,07,33,7.30
2014,04,14,07,34,7.40
2014,04,14,07,35,7.50
2014,04,14,07,36,7.60
2014,04,14,07,37,7.60
2014,04,14,07,38,7.70
2014,04,14,07,39,7.70
2014,04,14,07,40,7.80
2014,04,14,07,41,7.80
2014,04,14,07,42,7.80
2014,04,14,07,43,7.90
2014,04,14,07,44,7.90
2014,04,14,07,45,8.00
2014,04,14,07,46,8.00
2014,04,14,07,47,8.10
2014,04,14,07,48,8.10
2014,04,14,07,49,8.10
2014,04,14,07,50,8.10
2014,04,14,07,51,8.00
2014,04,14,07,52,7.90
2014,04,14,07,53,7.90
2014,04,14,07,54,7.80
2014,04,14,07,55,7.80
2014,04,14,07,56,7.80
2014,04,14,07,57,7.80
2014,04,14,07,58,7.70
2014,04,14,07,59,7.80
2014,04,14,08,00,7.70
2014,04,14,08,01,7.70
2014,04,14,08,02,7.70
2014,04,14,08,03,7.60
2014,04,14,08,04,7.60
2014,04,14,08,05,7.60
2014,04,14,08,06,7.50
2014,04,14,08,07,7.50
2014,04,14,08,08,7.50
2014,04,14,08,09,7.50
2014,04,14,08,10,7.50
2014,04,14,08,11,7.50
2014,04,14,08,12,7.50
2014,04,14,08,13,7.50
2014,04,14,08,14,7.50
2014,04,14,08,15,7.40
2014,04,14,08,16,7.40
2014,04,14,08,17,7.30
2014,04,14,08,18,7.30
2014,04,14,08,19,7.30
2014,04,14,08,20,7.30
2014,04,14,08,21,7.30
2014,04,14,08,22,7.30
2014,04,14,08,23,7.30
2014,04,14,08,24,7.30
2014,04,14,08,25,7.40
2014,04,14,08,26,7.40
2014,04,14,08,27,7.40
2014,04,14,08,28,7.40
2014,04,14,08,29,7.40
2014,04,14,08,30,7.50
2014,04,14,08,31,7.50
2014,04,14,08,32,7.60
2014,04,14,08,33,7.60
2014,04,14,08,34,7.60
2014,04,14,08,35,7.60
2014,04,14,08,36,7.60
2014,04,14,08,37,7.60
2014,04,14,08,38,7.60
2014,04,14,08,39,7.60
2014,04,14,08,40,7.60
2014,04,14,08,41,7.60
2014,04,14,08,42,7.60
2014,04,14,08,43,7.60
2014,04,14,08,44,7.60
2014,04,14,08,45,7.60
2014,04,14,08,46,7.60
2014,04,14,08,47,7.60
2014,04,14,08,48,7.60
2014,04,14,08,49,7.60
2014,04,14,08,50,7.70
2014,04,14,08,51,7.70
2014,04,14,08,52,7.70
2014,04,14,08,53,7.60
2014,04,14,08,54,7.60
2014,04,14,08,55,7.60
2014,04,14,08,56,7.60
2014,04,14,08,57,7.60
2014,04,14,08,58,7.70
2014,04,14,08,59,7.70
2014,04,14,09,00,7.70
2014,04,14,09,01,7.80
2014,04,14,09,02,7.80
2014,04,14,09,03,7.90
2014,04,14,09,04,7.90
2014,04,14,09,05,8.00
2014,04,14,09,06,8.10
2014,04,14,09,07,8.10
2014,04,14,09,08,8.10
2014,04,14,09,09,8.20
2014,04,14,09,10,8.20
2014,04,14,09,11,8.20
2014,04,14,09,12,8.20
2014,04,14,09,13,8.20
2014,04,14,09,14,8.20
2014,04,14,09,15,8.20
2014,04,14,09,16,8.10
2014,04,14,09,17,8.20
2014,04,14,09,18,8.20
2014,04,14,09,19,8.20
2014,04,14,09,20,8.30
2014,04,14,09,21,8.30
2014,04,14,09,22,8.30
2014,04,14,09,23,8.40
2014,04,14,09,24,8.40
2014,04,14,09,25,8.40
2014,04,14,09,26,8.40
2014,04,14,09,27,8.40
2014,04,14,09,28,8.40
2014,04,14,09,29,8.40
2014,04,14,09,30,8.40
2014,04,14,09,31,8.40
2014,04,14,09,32,8.40
2014,04,14,09,33,8.40
2014,04,14,09,34,8.40
2014,04,14,09,35,8.40
2014,04,14,09,36,8.30
2014,04,14,09,37,8.30
2014,04,14,09,38,8.30
2014,04,14,09,39,8.30
2014,04,14,09,40,8.40
2014,04,14,09,41,8.40
2014,04,14,09,42,8.50
2014,04,14,09,43,8.60
2014,04,14,09,44,8.70
2014,04,14,09,45,8.90
2014,04,14,09,46,9.00
2014,04,14,09,47,9.10
2014,04,14,09,48,9.10
2014,04,14,09,49,9.20
2014,04,14,09,50,9.20
2014,04,14,09,51,9.20
2014,04,14,09,52,9.30
2014,04,14,09,53,9.40
2014,04,14,09,54,9.50
2014,04,14,09,55,9.60
2014,04,14,09,56,9.60
2014,04,14,09,57,9.70
2014,04,14,09,58,9.80
2014,04,14,09,59,9.90
2014,04,14,10,00,10.10
2014,04,14,10,01,10.10
2014,04,14,10,02,10.10
2014,04,14,10,03,10.10
2014,04,14,10,04,10.00
2014,04,14,10,05,10.00
2014,04,14,10,06,10.00
2014,04,14,10,07,10.00
2014,04,14,10,08,10.00
2014,04,14,10,09,10.10
2014,04,14,10,10,10.20
2014,04,14,10,11,10.20
2014,04,14,10,12,10.30
2014,04,14,10,13,10.40
2014,04,14,10,14,10.50
2014,04,14,10,15,10.60
2014,04,14,10,16,10.70
2014,04,14,10,17,10.90
2014,04,14,10,18,10.90
2014,04,14,10,19,10.80
2014,04,14,10,20,10.80
2014,04,14,10,21,10.60
2014,04,14,10,22,10.50
2014,04,14,10,23,10.60
2014,04,14,10,24,10.50
2014,04,14,10,25,10.30
2014,04,14,10,26,10.20
2014,04,14,10,27,10.20
2014,04,14,10,28,10.20
2014,04,14,10,29,10.30
2014,04,14,10,30,10.30
2014,04,14,10,31,10.30
2014,04,14,10,32,10.30
2014,04,14,10,33,10.30
2014,04,14,10,34,10.40
2014,04,14,10,35,10.40
2014,04,14,10,36,10.40
2014,04,14,10,37,10.50
2014,04,14,10,38,10.60
2014,04,14,10,39,10.70
2014,04,14,10,40,10.80
2014,04,14,10,41,10.80
2014,04,14,10,42,10.80
2014,04,14,10,43,10.80
2014,04,14,10,44,10.80
2014,04,14,10,45,10.80
2014,04,14,10,46,10.80
2014,04,14,10,47,10.70
2014,04,14,10,48,10.70
2014,04,14,10,49,10.70
2014,04,14,10,50,10.60
2014,04,14,10,51,10.60
2014,04,14,10,52,10.50
2014,04,14,10,53,10.40
2014,04,14,10,54,10.40
2014,04,14,10,55,10.40
2014,04,14,10,56,10.50
2014,04,14,10,57,10.50
2014,04,14,10,58,10.60
2014,04,14,10,59,10.60
2014,04,14,11,00,10.60
2014,04,14,11,01,10.70
2014,04,14,11,02,10.70
2014,04,14,11,03,10.70
2014,04,14,11,04,10.70
2014,04,14,11,05,10.70
2014,04,14,11,06,10.80
2014,04,14,11,07,10.80
2014,04,14,11,08,10.80
2014,04,14,11,09,10.90
2014,04,14,11,10,10.90
2014,04,14,11,11,10.80
2014,04,14,11,12,10.80
2014,04,14,11,13,10.80
2014,04,14,11,14,10.80
2014,04,14,11,15,10.80
2014,04,14,11,16,10.80
2014,04,14,11,17,10.80
2014,04,14,11,18,10.80
2014,04,14,11,19,10.80
2014,04,14,11,20,10.80
2014,04,14,11,21,10.80
2014,04,14,11,22,10.80
2014,04,14,11,23,10.90
2014,04,14,11,24,10.90
2014,04,14,11,25,10.90
2014,04,14,11,26,10.90
2014,04,14,11,27,11.00
2014,04,14,11,28,11.10
2014,04,14,11,29,11.10
2014,04,14,11,30,11.10
2014,04,14,11,31,11.20
2014,04,14,11,32,11.20
2014,04,14,11,33,11.20
2014,04,14,11,34,11.20
2014,04,14,11,35,11.20
2014,04,14,11,36,11.30
2014,04,14,11,37,11.40
2014,04,14,11,38,11.50
2014,04,14,11,39,11.50
2014,04,14,11,40,11.60
2014,04,14,11,41,11.60
2014,04,14,11,42,11.60
2014,04,14,11,43,11.70
2014,04,14,11,44,11.80
2014,04,14,11,45,11.80
2014,04,14,11,46,11.80
2014,04,14,11,47,11.80
2014,04,14,11,48,11.90
2014,04,14,11,49,11.90
2014,04,14,11,50,12.00
2014,04,14,11,51,12.00
2014,04,14,11,52,12.10
2014,04,14,11,53,12.10
2014,04,14,11,54,12.10
2014,04,14,11,55,12.10
2014,04,14,11,56,12.20
2014,04,14,11,57,12.20
2014,04,14,11,58,12.20
2014,04,14,11,59,12.20
2014,04,14,12,00,12.30
2014,04,14,12,01,12.40
2014,04,14,12,02,12.40
2014,04,14,12,03,12.50
2014,04,14,12,04,12.50
2014,04,14,12,05,12.50
2014,04,14,12,06,12.50
2014,04,14,12,07,12.50
2014,04,14,12,08,12.40
2014,04,14,12,09,12.40
2014,04,14,12,10,12.40
2014,04,14,12,11,12.50
2014,04,14,12,12,12.50
2014,04,14,12,13,12.60
2014,04,14,12,14,12.60
2014,04,14,12,15,12.70
2014,04,14,12,16,12.80
2014,04,14,12,17,12.90
2014,04,14,12,18,13.00
2014,04,14,12,19,13.10
2014,04,14,12,20,13.20
2014,04,14,12,21,13.20
2014,04,14,12,22,13.10
2014,04,14,12,23,13.00
2014,04,14,12,24,13.00
2014,04,14,12,25,12.90
2014,04,14,12,26,12.80
2014,04,14,12,27,12.80
2014,04,14,12,28,12.70
2014,04,14,12,29,12.80
2014,04,14,12,30,13.00
2014,04,14,12,31,13.10
2014,04,14,12,32,13.20
2014,04,14,12,33,13.20
2014,04,14,12,34,13.40
2014,04,14,12,35,13.50
2014,04,14,12,36,13.80
2014,04,14,12,37,13.90
2014,04,14,12,38,13.90
2014,04,14,12,39,13.80
2014,04,14,12,40,13.80
2014,04,14,12,41,13.80
2014,04,14,12,42,13.70
2014,04,14,12,43,13.60
2014,04,14,12,44,13.60
2014,04,14,12,45,13.50
2014,04,14,12,46,13.50
2014,04,14,12,47,13.60
2014,04,14,12,48,13.50
2014,04,14,12,49,13.50
2014,04,14,12,50,13.40
2014,04,14,12,51,13.40
2014,04,14,12,52,13.40
2014,04,14,12,53,13.30
2014,04,14,12,54,13.30
2014,04,14,12,55,13.30
2014,04,14,12,56,13.30
2014,04,14,12,57,13.30
2014,04,14,12,58,13.30
2014,04,14,12,59,13.40
2014,04,14,13,00,13.40
2014,04,14,13,01,13.40
2014,04,14,13,02,13.40
2014,04,14,13,03,13.30
2014,04,14,13,04,13.30
2014,04,14,13,05,13.30
2014,04,14,13,06,13.30
2014,04,14,13,07,13.30
2014,04,14,13,08,13.30
2014,04,14,13,09,13.40
2014,04,14,13,10,13.50
2014,04,14,13,11,13.60
2014,04,14,13,12,13.60
2014,04,14,13,13,13.60
2014,04,14,13,14,13.70
2014,04,14,13,15,13.70
2014,04,14,13,16,13.70
2014,04,14,13,17,13.70
2014,04,14,13,18,13.70
2014,04,14,13,19,13.70
2014,04,14,13,20,13.60
2014,04,14,13,21,13.60
2014,04,14,13,22,13.60
2014,04,14,13,23,13.60
2014,04,14,13,24,13.60
2014,04,14,13,25,13.60
2014,04,14,13,26,13.60
2014,04,14,13,27,13.60
2014,04,14,13,28,13.50
2014,04,14,13,29,13.60
2014,04,14,13,30,13.70
2014,04,14,13,31,13.80
2014,04,14,13,32,13.90
2014,04,14,13,33,13.90
2014,04,14,13,34,13.90
2014,04,14,13,35,13.90
2014,04,14,13,36,13.90
2014,04,14,13,37,13.90
2014,04,14,13,38,14.00
2014,04,14,13,39,14.00
2014,04,14,13,40,14.00
2014,04,14,13,41,14.10
2014,04,14,13,42,14.30
2014,04,14,13,43,14.40
2014,04,14,13,44,14.50
2014,04,14,13,45,14.60
2014,04,14,13,46,14.60
2014,04,14,13,47,14.70
2014,04,14,13,48,14.70
2014,04,14,13,49,14.70
2014,04,14,13,50,14.70
2014,04,14,13,51,14.70
2014,04,14,13,52,14.70
2014,04,14,13,53,14.60
2014,04,14,13,54,14.50
2014,04,14,13,55,14.50
2014,04,14,13,56,14.50
2014,04,14,13,57,14.50
2014,04,14,13,58,14.50
2014,04,14,13,59,14.50
2014,04,14,14,00,14.50
2014,04,14,14,01,14.50
2014,04,14,14,02,14.50
2014,04,14,14,03,14.60
2014,04,14,14,04,14.60
2014,04,14,14,05,14.70
2014,04,14,14,06,14.70
2014,04,14,14,07,14.90
2014,04,14,14,08,15.00
2014,04,14,14,09,15.00
2014,04,14,14,10,15.00
2014,04,14,14,11,15.00
2014,04,14,14,12,15.00
2014,04,14,14,13,15.10
2014,04,14,14,14,15.20
2014,04,14,14,15,15.00
2014,04,14,14,16,15.00
2014,04,14,14,17,15.10
2014,04,14,14,18,15.20
2014,04,14,14,19,15.20
2014,04,14,14,20,15.10
2014,04,14,14,21,15.00
2014,04,14,14,22,15.00
2014,04,14,14,23,15.00
2014,04,14,14,24,15.00
2014,04,14,14,25,15.00
2014,04,14,14,26,15.00
2014,04,14,14,27,15.00
2014,04,14,14,28,15.00
2014,04,14,14,29,15.00
2014,04,14,14,30,15.20
2014,04,14,14,31,15.20
2014,04,14,14,32,15.10
2014,04,14,14,33,15.00
2014,04,14,14,34,15.00
2014,04,14,14,35,15.00
2014,04,14,14,36,15.10
2014,04,14,14,37,15.20
2014,04,14,14,38,15.20
2014,04,14,14,39,15.20
2014,04,14,14,40,15.10
2014,04,14,14,41,15.20
2014,04,14,14,42,15.10
2014,04,14,14,43,15.20
2014,04,14,14,44,15.20
2014,04,14,14,45,15.20
2014,04,14,14,46,15.10
2014,04,14,14,47,15.10
2014,04,14,14,48,15.10
2014,04,14,14,49,15.10
2014,04,14,14,50,15.20
2014,04,14,14,51,15.30
2014,04,14,14,52,15.50
2014,04,14,14,53,15.60
2014,04,14,14,54,15.60
2014,04,14,14,55,15.60
2014,04,14,14,56,15.50
2014,04,14,14,57,15.60
2014,04,14,14,58,15.60
2014,04,14,14,59,15.60
2014,04,14,15,00,15.60
2014,04,14,15,01,15.60
2014,04,14,15,02,15.60
2014,04,14,15,03,15.60
2014,04,14,15,04,15.70
2014,04,14,15,05,15.70
2014,04,14,15,06,15.70
2014,04,14,15,07,15.70
2014,04,14,15,08,15.70
2014,04,14,15,09,15.70
2014,04,14,15,10,15.60
2014,04,14,15,11,15.50
2014,04,14,15,12,15.40
2014,04,14,15,13,15.40
2014,04,14,15,14,15.30
2014,04,14,15,15,15.30
2014,04,14,15,16,15.30
2014,04,14,15,17,15.30
2014,04,14,15,18,15.20
2014,04,14,15,19,15.30
2014,04,14,15,20,15.40
2014,04,14,15,21,15.50
2014,04,14,15,22,15.60
2014,04,14,15,23,15.80
2014,04,14,15,24,15.90
2014,04,14,15,25,15.90
2014,04,14,15,26,16.00
2014,04,14,15,27,16.00
2014,04,14,15,28,16.10
2014,04,14,15,29,16.20
2014,04,14,15,30,16.30
2014,04,14,15,31,16.30
2014,04,14,15,32,16.30
2014,04,14,15,33,16.30
2014,04,14,15,34,16.30
2014,04,14,15,35,16.30
2014,04,14,15,36,16.20
2014,04,14,15,37,16.10
2014,04,14,15,38,16.10
2014,04,14,15,39,16.20
2014,04,14,15,40,16.20
2014,04,14,15,41,16.10
2014,04,14,15,42,16.10
2014,04,14,15,43,16.10
2014,04,14,15,44,16.00
2014,04,14,15,45,16.00
2014,04,14,15,46,15.90
2014,04,14,15,47,15.80
2014,04,14,15,48,15.80
2014,04,14,15,49,15.80
2014,04,14,15,50,15.80
2014,04,14,15,51,15.80
2014,04,14,15,52,15.90
2014,04,14,15,53,15.80
2014,04,14,15,54,15.80
2014,04,14,15,55,15.80
2014,04,14,15,56,15.90
2014,04,14,15,57,16.00
2014,04,14,15,58,16.00
2014,04,14,15,59,16.10
2014,04,14,16,00,16.10
2014,04,14,16,01,16.10
2014,04,14,16,02,16.10
2014,04,14,16,03,16.20
2014,04,14,16,04,16.10
2014,04,14,16,05,16.10
2014,04,14,16,06,16.20
2014,04,14,16,07,16.20
2014,04,14,16,08,16.20
2014,04,14,16,09,16.20
2014,04,14,16,10,16.20
2014,04,14,16,11,16.30
2014,04,14,16,12,16.30
2014,04,14,16,13,16.40
2014,04,14,16,14,16.40
2014,04,14,16,15,16.40
2014,04,14,16,16,16.30
2014,04,14,16,17,16.30
2014,04,14,16,18,16.30
2014,04,14,16,19,16.30
2014,04,14,16,20,16.30
2014,04,14,16,21,16.30
2014,04,14,16,22,16.30
2014,04,14,16,23,16.40
2014,04,14,16,24,16.40
2014,04,14,16,25,16.40
2014,04,14,16,26,16.40
2014,04,14,16,27,16.50
2014,04,14,16,28,16.50
2014,04,14,16,29,16.50
2014,04,14,16,30,16.40
2014,04,14,16,31,16.40
2014,04,14,16,32,16.30
2014,04,14,16,33,16.30
2014,04,14,16,34,16.20
2014,04,14,16,35,16.20
2014,04,14,16,36,16.20
2014,04,14,16,37,16.30
2014,04,14,16,38,16.40
2014,04,14,16,39,16.50
2014,04,14,16,40,16.60
2014,04,14,16,41,16.70
2014,04,14,16,42,16.80
2014,04,14,16,43,16.80
2014,04,14,16,44,16.90
2014,04,14,16,45,16.90
2014,04,14,16,46,16.80
2014,04,14,16,47,16.80
2014,04,14,16,48,16.80
2014,04,14,16,49,16.90
2014,04,14,16,50,16.90
2014,04,14,16,51,17.00
2014,04,14,16,52,17.10
2014,04,14,16,53,17.20
2014,04,14,16,54,17.20
2014,04,14,16,55,17.30
2014,04,14,16,56,17.40
2014,04,14,16,57,17.50
2014,04,14,16,58,17.50
2014,04,14,16,59,17.60
2014,04,14,17,00,17.60
2014,04,14,17,01,17.60
2014,04,14,17,02,17.70
2014,04,14,17,03,17.70
2014,04,14,17,04,17.80
2014,04,14,17,05,17.80
2014,04,14,17,06,17.90
2014,04,14,17,07,18.00
2014,04,14,17,08,18.10
2014,04,14,17,09,18.10
2014,04,14,17,10,18.10
2014,04,14,17,11,18.10
2014,04,14,17,12,18.10
2014,04,14,17,13,18.00
2014,04,14,17,14,17.90
2014,04,14,17,15,17.80
2014,04,14,17,16,17.80
2014,04,14,17,17,17.70
2014,04,14,17,18,17.70
2014,04,14,17,19,17.70
2014,04,14,17,20,17.60
2014,04,14,17,21,17.60
2014,04,14,17,22,17.50
2014,04,14,17,23,17.40
2014,04,14,17,24,17.40
2014,04,14,17,25,17.30
2014,04,14,17,26,17.20
2014,04,14,17,27,17.20
2014,04,14,17,28,17.20
2014,04,14,17,29,17.20
2014,04,14,17,30,17.20
2014,04,14,17,31,17.20
2014,04,14,17,32,17.30
2014,04,14,17,33,17.30
2014,04,14,17,34,17.30
2014,04,14,17,35,17.40
2014,04,14,17,36,17.40
2014,04,14,17,37,17.50
2014,04,14,17,38,17.50
2014,04,14,17,39,17.60
2014,04,14,17,40,17.70
2014,04,14,17,41,17.80
2014,04,14,17,42,17.90
2014,04,14,17,43,17.90
2014,04,14,17,44,17.90
2014,04,14,17,45,17.90